Voltar ao catálogo

STARLINK-36352

AtivoComunicaçõesSSO
NORAD 67567·PAYLOAD·🇺🇸 United States

Lançado Jan 25, 2026 de Vandenberg Space Force Base

Loading…

Próximas Passagens (próximas 24 horas)

TLE

AtualizadoSource: CelesTrak SupGP

Época: Sep 14, 2026, 21:01 UTC

1 67567C 26016G   26257.87618056 -.00020970  00000+0 -65036-3 0  2578
2 67567  97.2844 316.6430 0000707  99.6441 132.3432 15.33479239    12

Acompanhe STARLINK-36352 em tempo real com AllMySat

Download on the App Store